Weather in Astashikha

Russia / Nizhny Novgorod Oblast'     56°55′25″N   45°19′47″E
temp.,
°C
wind,
m/s
gust,
m/s
humid.,
%
clouds,
%
prec.,
mm/h
press.,
hPa
HPBL,
m
25 may, wed
wed2500:00−1nw23945 0.0 100942
03:00−2nw249717 0.0 100969
06:00+3nw358785 0.0 1010356
09:00+6wnw3570100 0.1 10091164
12:00+8wnw4664100 0.4 10091342
15:00+4wnw4998100 2.6 1010803
18:00+4wnw379196 0.1 1011644
21:00+3wsw369732 0.1 1011126
26 may, thu
thu2600:00+1w389825 0.0 1011179
03:00+1sw3697100 0.0 1011121
06:00+5sw3894100 0.2 1010317
09:00+7wsw3681100 0.5 1009943
12:00+7sw588799 0.5 1009777
15:00+11sw466685 0.9 10081282
18:00+11sw35706 0.3 10071017
21:00+5s229236 0.3 100624
27 may, fri
fri2700:00+6ese3789100 0.0 1004181
03:00+6se3897100 0.0 1001215
06:00+8e41198100 0.8 998459
09:00+9ese4999100 3.8 996483
12:00+10e3698100 1.1 995431
15:00+10ese1498100 1.3 995227
18:00+10w1198100 0.1 99631
21:00+8w4998100 0.6 998379
28 may, sat
sat2800:00+8wsw3998100 1.4 1000340
03:00+9sw3899100 1.5 1000330
06:00+9sw51094100 0.1 1001514
09:00+11ssw61089100 0.4 1000770
12:00+9se3794100 3.6 1000480
15:00+9w51098100 6.4 999833
18:00+11sw5118811 0.1 10021135
21:00+9sw5138894 0.3 1004633
29 may, sun
sun2900:00+8sw514891 0.0 1006515
03:00+7sw513942 0.0 1008520
06:00+9sw5128630 0.0 1009788
09:00+13sw7116263 0.0 10101449
12:00+15wsw7115951 0.4 10121837
15:00+17wsw6114679 0.6 10122598
18:00+14wsw596964 0.8 1014968
21:00+9ssw38915 1.0 1017136